Terminal Aerodrome Forecast
Issued by NWS

Home | Current Version | Previous Version | Text Only | Print | Product List | Glossary On
Versions: 1 2 3 4 5 6 7 8 9 10 11 12 13 14
000
FTUS43 KPAH 221120
TAFOWB
TAF
KOWB 221120Z 2212/2312 05014G25KT P6SM SCT010 OVC060
      TEMPO 2212/2214 BKN010
     FM221500 06012G20KT 4SM -SHRA BR OVC010
     FM221800 04010G19KT 4SM -SHRA OVC015
     FM230000 05012KT P6SM VCSH OVC025
     FM230600 04011KT P6SM BKN025
     FM231000 03010KT P6SM BKN045=

USA.gov is the U.S. government's official web portal to all federal, state and local government web resources and services.